Location: Czekanka
(50.4925°N, 19.2643°E)
Time: 07:10:14
(UTC+00:00)

SL-16 R/B - Pass Details

Date: 18 September 2024
Orbit: 842 x 846 km, 71.0° (Epoch: 05 October)

Event Time Altitude Azimuth Distance (km) Brightness Sun altitude
Rises 21:03:16 0° 263° (W) 3,403 5.6 -34.4°
Reaches altitude 10° 21:06:29 10° 281° (W) 2,470 5.0 -34.6°
Maximum altitude 21:10:26 19° 326° (NW) 1,917 4.7 -34.9°
Drops below altitude 10° 21:14:23 10° 10° (N) 2,475 5.2 -35.2°
Sets 21:17:37 0° 28° (NNE) 3,413 5.8 -35.4°
